This demonstration page uses our WeatherBlox Daily Observations layout. Learn more.

Left ArrowRight Arrow

34.74481, -87.66753

Hourly Observations for July 16, 2022

Temp ( °F °C ) Dew Point ( °F °C ) Humidity (%) Winds ( mph kmh ) Pressure ( in mb ) Visibility ( mi km ) Precip ( " mm )
12:53 am 00:53 Clear 73 22.8 69 20.6 87 87 Calm 30.05 1018 10 16 0.00 0.00
1:53 am 01:53 Clear 72 22.2 69 20.6 91 91 Calm 30.04 1017 10 16 0.00 0.00
2:53 am 02:53 Clear 73 22.8 70 21.1 90 90 Calm 30.04 1017 10 16 0.00 0.00
3:53 am 03:53 Clear 73 22.8 70 21.1 90 90 Calm 30.03 1017 10 16 0.00 0.00
4:53 am 04:53 Clear 74 23.3 70 21.1 88 88 Calm 30.03 1017 10 16 0.00 0.00
5:53 am 05:53 Sunny 73 22.8 70 21.1 90 90 Calm 30.03 1017 10 16 0.00 0.00
6:53 am 06:53 Sunny 73 22.8 70 21.1 90 90 Calm 30.04 1017 10 16 0.00 0.00
7:53 am 07:53 Sunny 77 25 71 21.7 82 82 Calm 30.05 1018 10 16 0.00 0.00
8:53 am 08:53 Sunny 83 28.3 73 22.8 72 72 S 5 7 30.06 1018 10 16 0.00 0.00
9:53 am 09:53 Sunny 88 31.1 73 22.8 61 61 W 6 9 30.05 1018 10 16 0.00 0.00
10:53 am 10:53 Mostly Sunny 91 32.8 71 21.7 52 52 W 5 7 30.05 1018 10 16 0.00 0.00
11:53 am 11:53 Sunny 91 32.8 68 20 47 47 SW 5 7 30.04 1017 10 16 0.00 0.00
12:53 pm 12:53 Sunny 93 33.9 69 20.6 46 46 VRB 6 9 30.03 1017 10 16 0.00 0.00
1:53 pm 13:53 Sunny 94 34.4 67 19.4 41 41 undefined N/A 30.01 1016 10 16 0.00 0.00
3:53 pm 15:53 Mostly Sunny 93 33.9 67 19.4 42 42 SSW 12 19 29.96 1015 10 16 0.00 0.00
4:53 pm 16:53 Sunny 94 34.4 67 19.4 41 41 undefined N/A 29.96 1014 10 16 0.00 0.00
5:53 pm 17:53 Mostly Cloudy 94 34.4 68 20 43 43 undefined N/A 29.95 1014 10 16 0.00 0.00
6:53 pm 18:53 Sunny 92 33.3 68 20 46 46 W 6 9 29.95 1014 10 16 0.00 0.00
7:53 pm 19:53 Sunny 86 30 71 21.7 61 61 SSW 3 6 29.95 1014 10 16 0.00 0.00
8:53 pm 20:53 Clear 81 27.2 72 22.2 74 74 SSE 3 6 29.96 1015 10 16 0.00 0.00
9:53 pm 21:53 Clear 81 27.2 72 22.2 74 74 SSE 5 7 29.98 1015 10 16 0.00 0.00
10:53 pm 22:53 Clear 79 26.1 71 21.7 77 77 SSE 6 9 29.98 1015 10 16 0.00 0.00
11:53 pm 23:53 Clear 79 26.1 70 21.1 74 74 Calm 29.98 1015 10 16 0.00 0.00

Powered by AerisWeather